Погода в Беляевке

Россия / Пермский край     57°28′08″N   55°28′27″E
темп.,
°C
ветер,
м/с
пор.,
м/с
влажн.,
%
обл.,
%
осадки,
мм/ч
давл.,
гПа
погр.,
м
22 января, сб
сб2223:00−15ююв249989 0.1 102490
02:00−17ююв2110069 0.0 102526
05:00−18юв119969 0.0 102619
08:00−18ююв1110097 0.0 102619
11:00−15ююв139791 0.1 102779
14:00−11ю259196 0.0 1028253
17:00−12юв1197100 0.1 102910
20:00−15вюв1198100 0.0 103010
23 января, вс
вс2323:00−15юв119873 0.0 103114
02:00−16вюв1199100 0.0 103111
05:00−14юв1197100 0.0 103214
08:00−13юв1195100 0.0 103334
11:00−11ююв2689100 0.0 1033184
14:00−8ю2783100 0.0 1034258
17:00−8ююв2590100 0.0 1035157
20:00−9ююв1295100 0.0 103652
24 января, пн
пн2423:00−8ю2795100 0.2 1037291
02:00−8ю2696100 0.8 1037234
05:00−8ююз2497100 1.3 1037148
08:00−8ююз2597100 0.4 1038173
11:00−7зюз2495100 0.9 1038181
14:00−6з239199 0.1 1038351
17:00−10зюз119849 0.1 103811
20:00−15ююз1110095 0.0 10389
25 января, вт
вт2523:00−17ююз11100100 0.0 10389
02:00−15ююз11100100 0.0 103728
05:00−16ююз23100100 0.1 103648
08:00−16ююз23100100 0.0 103564
11:00−15ююз2398100 0.1 103497
14:00−10юз2494100 0.1 1033230
17:00−11ю249793 0.1 103294
20:00−15ю2410091 0.0 103157
26 января, ср
ср2623:00−18ю239939 0.0 103145
02:00−20ююв229923 0.0 103038
05:00−20ююв2310074 0.0 103039
08:00−20ююв2210049 0.0 102940
11:00−17ю259632 0.0 1029108
14:00−12ю369092 0.0 1028256
17:00−12ю259565 0.0 1027114
20:00−17ююв229977 0.0 102725